Regional Weather Roundup
Issued by NWS Lake Charles, LA

Home | Current Version | Previous Version | Text Only | Print | Product List | Glossary On
Versions: 1 2 3 4 5 6 7 8 9 10 11 12 13 14 15 16 17 18 19 20 21 22 23 24 25 26 27 28 29 30 31 32 33 34 35 36 37 38 39 40 41 42 43 44 45 46 47 48 49 50
000
ASUS44 KLCH 030810
RWRLCH
RWRLCH
REGIONAL WEATHER ROUNDUP
NATIONAL WEATHER SERVICE LAKE CHARLES LA
200 AM CST TUE MAR 03 2015

Note: "fair" indicates few or no clouds below 12,000 feet with no
significant weather and/or obstructions to visibility.


ACROSS SOUTHEAST TEXAS

CITY           SKY/WX    TMP DP  RH WIND       PRES   REMARKS
BEAUMONT       CLOUDY    57  57 100 E6        30.12F FOG
BEAUMONT CITY  FOG       57  57 100 CALM      30.13F VSB 1/2
ORANGE         FOG       56  56 100 NE3       30.14F VSB 1/2
JASPER         FOG       49  49  99 E3        30.16S VSB 1/2
$$

ACROSS CENTRAL LOUISIANA

CITY           SKY/WX    TMP DP  RH WIND       PRES   REMARKS
LEESVILLE      CLOUDY    48  46  93 E3        30.13F FOG
FULLERTON      FOG       49  46  90 CALM      30.12F VSB 1/2
ALEXANDRIA INT CLOUDY    45  45 100 E3        30.14F FOG
ESLER FIELD    CLOUDY    44  44 100 E3        30.15F FOG
DERIDDER       CLOUDY    49  48  95 CALM      30.16F FOG
OAKDALE        FOG       49  48  96 CALM      30.15F VSB 1
OPELOUSAS      FOG       49  49  99 N3        30.15F VSB 1/2
$$

ACROSS SOUTHWEST AND SOUTH CENTRAL LOUISIANA

CITY           SKY/WX    TMP DP  RH WIND       PRES   REMARKS
SULPHUR        CLOUDY    55  55 100 NE5       30.14F FOG
LAKE CHARLES   FOG       53  52  96 NE7       30.13F VSB 3/4
CHENNAULT INT  FOG       52  52 100 E5        30.14F VSB 1
CAMERON PHI    FOG       57  57 100 NE6       30.15F VSB 3/4
DEQUINCY       NOT AVBL
JENNINGS       CLOUDY    51  51 100 NE5       30.14F FOG
LAFAYETTE      FOG       53  53 100 NE6       30.14F VSB 1/2
NEW IBERIA     FOG       57  56  96 NE5       30.14F VSB 1/2
ABBEVILLE      NOT AVBL
PATTERSON      CLOUDY    66  64  94 CALM      30.13F VSB 1/4
SALT POINT       N/A     67  66  97 CALM      30.11F
$$

SELECTED SITES ACROSS THE REGION

CITY           SKY/WX    TMP DP  RH WIND       PRES   REMARKS
HOUSTON BUSH   FOG       56  56 100 E3        30.11F VSB 1/8
HOUSTON HOBBY  FOG       58  58 100 E6        30.10F VSB 1/4
GALVESTON      FOG       57  57 100 E8        30.11F VSB 1/4
COLLEGE STAT   CLOUDY    45  45 100 CALM      30.12F FOG
CONROE         FOG       52  51  97 CALM      30.12F VSB 1/2
HUNTSVILLE     FOG       50  49  96 E3        30.11F VSB 3/4
LUFKIN         CLOUDY    49  46  90 E3        30.13F FOG
SHREVEPORT     DRZL/FOG  42  41  96 SE5       30.14F VSB 1/2
MONROE         FOG       41  41 100 CALM      30.17F VSB 1/2
NATCHEZ MS     CLOUDY    46  45  93 CALM      30.16F VSB 1
BATON ROUGE    FOG       57  57 100 CALM      30.14F VSB 1/4
N.O. INTL ARPT FOG       66  65  96 S5        30.14F VSB 1/16
SLIDELL        FOG       65  65 100 SE5       30.14F VSB 1/2
$$

MARINE REPORTS

STATION/POSITION TIME  TEMP    WIND        PRES    VSBY  WAVE
                       AIR SEA DIR/SP/G                  HT/PER
                 (UTC) (F)     (DEG/KT/KT) (MB)    (MI)  (FT/S)
BUOY 30 S HIGH I 0800   58 58   80/  8/  8 1019.1F         2/ 6
SEA RIM ST PARK  0800   57      70/  5/  7 1020.4F
PORT ARTHUR      0800      54   60/  4/  6 1020.2F
SABINE PASS N    0800   57 53   70/  5/  6 1020.2F
TEXAS POINT      NOT AVBL
CALCASIEU PASS   0800   56 55   70/  4/  6   N/A
LK CHARLES BEACH 0800   53                 1020.7F
MARSH ISLAND     NOT AVBL
FRESH WATER LOCK 0800   60 59   50/  5/  5 1020.2F
AMERADA PASS     0800   67 49  110/  4/  4 1020.1F
$$



USA.gov is the U.S. government's official web portal to all federal, state and local government web resources and services.